Year,Month,Day,Hour,Minute,Value (Times are PST for temperature in C)
2020,10,01,11,04,19.00
2020,10,01,11,05,19.00
2020,10,01,11,06,19.10
2020,10,01,11,07,19.10
2020,10,01,11,08,19.10
2020,10,01,11,09,19.10
2020,10,01,11,10,19.20
2020,10,01,11,11,19.20
2020,10,01,11,12,19.20
2020,10,01,11,13,19.20
2020,10,01,11,14,19.30
2020,10,01,11,15,19.30
2020,10,01,11,16,19.40
2020,10,01,11,17,19.40
2020,10,01,11,18,19.50
2020,10,01,11,19,19.50
2020,10,01,11,20,19.50
2020,10,01,11,21,19.50
2020,10,01,11,22,19.50
2020,10,01,11,23,19.50
2020,10,01,11,24,19.40
2020,10,01,11,25,19.40
2020,10,01,11,26,19.40
2020,10,01,11,27,19.40
2020,10,01,11,28,19.40
2020,10,01,11,29,19.40
2020,10,01,11,30,19.40
2020,10,01,11,31,19.40
2020,10,01,11,32,19.40
2020,10,01,11,33,19.40
2020,10,01,11,34,19.40
2020,10,01,11,35,19.40
2020,10,01,11,36,19.40
2020,10,01,11,37,19.40
2020,10,01,11,38,19.40
2020,10,01,11,39,19.40
2020,10,01,11,40,19.50
2020,10,01,11,41,19.50
2020,10,01,11,42,19.60
2020,10,01,11,43,19.60
2020,10,01,11,44,19.60
2020,10,01,11,45,19.60
2020,10,01,11,46,19.60
2020,10,01,11,47,19.60
2020,10,01,11,48,19.60
2020,10,01,11,49,19.60
2020,10,01,11,50,19.60
2020,10,01,11,51,19.60
2020,10,01,11,52,19.60
2020,10,01,11,53,19.70
2020,10,01,11,54,19.70
2020,10,01,11,55,19.80
2020,10,01,11,56,19.80
2020,10,01,11,57,19.80
2020,10,01,11,58,19.80
2020,10,01,11,59,19.80
2020,10,01,12,00,19.80
2020,10,01,12,01,19.80
2020,10,01,12,02,19.80
2020,10,01,12,03,19.80
2020,10,01,12,04,19.80
2020,10,01,12,05,19.80
2020,10,01,12,06,19.80
2020,10,01,12,07,19.80
2020,10,01,12,08,19.90
2020,10,01,12,09,20.00
2020,10,01,12,10,20.00
2020,10,01,12,11,20.10
2020,10,01,12,12,20.10
2020,10,01,12,13,20.20
2020,10,01,12,14,20.20
2020,10,01,12,15,20.20
2020,10,01,12,16,20.30
2020,10,01,12,17,20.30
2020,10,01,12,18,20.40
2020,10,01,12,19,20.40
2020,10,01,12,20,20.50
2020,10,01,12,21,20.50
2020,10,01,12,22,20.60
2020,10,01,12,23,20.60
2020,10,01,12,24,20.60
2020,10,01,12,25,20.50
2020,10,01,12,26,20.50
2020,10,01,12,27,20.40
2020,10,01,12,28,20.40
2020,10,01,12,29,20.30
2020,10,01,12,30,20.20
2020,10,01,12,31,20.10
2020,10,01,12,32,20.10
2020,10,01,12,33,20.00
2020,10,01,12,34,19.90
2020,10,01,12,35,19.80
2020,10,01,12,36,19.70
2020,10,01,12,37,19.70
2020,10,01,12,38,19.70
2020,10,01,12,39,19.70
2020,10,01,12,40,19.70
2020,10,01,12,41,19.70
2020,10,01,12,42,19.60
2020,10,01,12,43,19.60
2020,10,01,12,44,19.60
2020,10,01,12,45,19.60
2020,10,01,12,46,19.70
2020,10,01,12,47,19.70
2020,10,01,12,48,19.70
2020,10,01,12,49,19.60
2020,10,01,12,50,19.60
2020,10,01,12,51,19.60
2020,10,01,12,52,19.60
2020,10,01,12,53,19.60
2020,10,01,12,54,19.70
2020,10,01,12,55,19.70
2020,10,01,12,56,19.70
2020,10,01,12,57,19.70
2020,10,01,12,58,19.60
2020,10,01,12,59,19.60
2020,10,01,13,00,19.60
2020,10,01,13,01,19.60
2020,10,01,13,02,19.60
2020,10,01,13,03,19.60
2020,10,01,13,04,19.60
2020,10,01,13,05,19.60
2020,10,01,13,06,19.70
2020,10,01,13,07,19.70
2020,10,01,13,08,19.80
2020,10,01,13,09,19.80
2020,10,01,13,10,19.90
2020,10,01,13,11,19.90
2020,10,01,13,12,20.00
2020,10,01,13,13,20.00
2020,10,01,13,14,20.10
2020,10,01,13,15,20.20
2020,10,01,13,16,20.20
2020,10,01,13,17,20.20
2020,10,01,13,18,20.20
2020,10,01,13,19,20.20
2020,10,01,13,20,20.20
2020,10,01,13,21,20.20
2020,10,01,13,22,20.20
2020,10,01,13,23,20.20
2020,10,01,13,24,20.10
2020,10,01,13,25,20.10
2020,10,01,13,26,20.00
2020,10,01,13,27,20.00
2020,10,01,13,28,20.00
2020,10,01,13,29,20.00
2020,10,01,13,30,20.00
2020,10,01,13,31,20.00
2020,10,01,13,32,20.00
2020,10,01,13,33,20.00
2020,10,01,13,34,19.90
2020,10,01,13,35,19.90
2020,10,01,13,36,19.90
2020,10,01,13,37,19.80
2020,10,01,13,38,19.80
2020,10,01,13,39,19.80
2020,10,01,13,40,19.80
2020,10,01,13,41,19.80
2020,10,01,13,42,19.80
2020,10,01,13,43,19.80
2020,10,01,13,44,19.80
2020,10,01,13,45,19.80
2020,10,01,13,46,19.80
2020,10,01,13,47,19.80
2020,10,01,13,48,19.90
2020,10,01,13,49,19.90
2020,10,01,13,50,19.90
2020,10,01,13,51,19.90
2020,10,01,13,52,19.90
2020,10,01,13,53,19.90
2020,10,01,13,54,19.90
2020,10,01,13,55,20.00
2020,10,01,13,56,20.00
2020,10,01,13,57,20.00
2020,10,01,13,58,20.10
2020,10,01,13,59,20.10
2020,10,01,14,00,20.10
2020,10,01,14,01,20.10
2020,10,01,14,02,20.10
2020,10,01,14,03,20.10
2020,10,01,14,04,20.10
2020,10,01,14,05,20.10
2020,10,01,14,06,20.20
2020,10,01,14,07,20.10
2020,10,01,14,08,20.00
2020,10,01,14,09,20.00
2020,10,01,14,10,19.90
2020,10,01,14,11,19.80
2020,10,01,14,12,19.80
2020,10,01,14,13,19.70
2020,10,01,14,14,19.70
2020,10,01,14,15,19.60
2020,10,01,14,16,19.60
2020,10,01,14,17,19.60
2020,10,01,14,18,19.60
2020,10,01,14,19,19.60
2020,10,01,14,20,19.60
2020,10,01,14,21,19.60
2020,10,01,14,22,19.60
2020,10,01,14,23,19.60
2020,10,01,14,24,19.70
2020,10,01,14,25,19.70
2020,10,01,14,26,19.70
2020,10,01,14,27,19.70
2020,10,01,14,28,19.80
2020,10,01,14,29,19.80
2020,10,01,14,30,19.80
2020,10,01,14,31,19.80
2020,10,01,14,32,19.80
2020,10,01,14,33,19.80
2020,10,01,14,34,19.80
2020,10,01,14,35,19.90
2020,10,01,14,36,19.90
2020,10,01,14,37,19.90
2020,10,01,14,38,19.90
2020,10,01,14,39,19.90
2020,10,01,14,40,19.90
2020,10,01,14,41,19.90
2020,10,01,14,42,19.90
2020,10,01,14,43,19.90
2020,10,01,14,44,19.80
2020,10,01,14,45,19.80
2020,10,01,14,46,19.80
2020,10,01,14,47,19.90
2020,10,01,14,48,19.90
2020,10,01,14,49,19.90
2020,10,01,14,50,19.90
2020,10,01,14,51,19.80
2020,10,01,14,52,19.80
2020,10,01,14,53,19.80
2020,10,01,14,54,19.70
2020,10,01,14,55,19.70
2020,10,01,14,56,19.70
2020,10,01,14,57,19.70
2020,10,01,14,58,19.80
2020,10,01,14,59,19.80
2020,10,01,15,00,19.80
2020,10,01,15,01,19.90
2020,10,01,15,02,19.90
2020,10,01,15,03,20.00
2020,10,01,15,04,20.00
2020,10,01,15,05,20.10
2020,10,01,15,06,20.10
2020,10,01,15,07,20.10
2020,10,01,15,08,20.10
2020,10,01,15,09,20.10
2020,10,01,15,10,20.10
2020,10,01,15,11,20.10
2020,10,01,15,12,20.20
2020,10,01,15,13,20.20
2020,10,01,15,14,20.20
2020,10,01,15,15,20.20
2020,10,01,15,16,20.30
2020,10,01,15,17,20.30
2020,10,01,15,18,20.30
2020,10,01,15,19,20.30
2020,10,01,15,20,20.30
2020,10,01,15,21,20.30
2020,10,01,15,22,20.40
2020,10,01,15,23,20.40
2020,10,01,15,24,20.40
2020,10,01,15,25,20.40
2020,10,01,15,26,20.40
2020,10,01,15,27,20.40
2020,10,01,15,28,20.40
2020,10,01,15,29,20.40
2020,10,01,15,30,20.40
2020,10,01,15,31,20.40
2020,10,01,15,32,20.40
2020,10,01,15,33,20.50
2020,10,01,15,34,20.60
2020,10,01,15,35,20.60
2020,10,01,15,36,20.60
2020,10,01,15,37,20.60
2020,10,01,15,38,20.60
2020,10,01,15,39,20.60
2020,10,01,15,40,20.60
2020,10,01,15,41,20.50
2020,10,01,15,42,20.40
2020,10,01,15,43,20.40
2020,10,01,15,44,20.40
2020,10,01,15,45,20.40
2020,10,01,15,46,20.30
2020,10,01,15,47,20.30
2020,10,01,15,48,20.30
2020,10,01,15,49,20.30
2020,10,01,15,50,20.40
2020,10,01,15,51,20.40
2020,10,01,15,52,20.40
2020,10,01,15,53,20.40
2020,10,01,15,54,20.50
2020,10,01,15,55,20.50
2020,10,01,15,56,20.60
2020,10,01,15,57,20.50
2020,10,01,15,58,20.50
2020,10,01,15,59,20.50
2020,10,01,16,00,20.50
2020,10,01,16,01,20.50
2020,10,01,16,02,20.50
2020,10,01,16,03,20.50
2020,10,01,16,04,20.60
2020,10,01,16,05,20.60
2020,10,01,16,06,20.60
2020,10,01,16,07,20.60
2020,10,01,16,08,20.60
2020,10,01,16,09,20.60
2020,10,01,16,10,20.60
2020,10,01,16,11,20.60
2020,10,01,16,12,20.60
2020,10,01,16,13,20.60
2020,10,01,16,14,20.70
2020,10,01,16,15,20.80
2020,10,01,16,16,20.80
2020,10,01,16,17,20.80
2020,10,01,16,18,20.80
2020,10,01,16,19,20.80
2020,10,01,16,20,20.80
2020,10,01,16,21,20.80
2020,10,01,16,22,20.80
2020,10,01,16,23,20.70
2020,10,01,16,24,20.70
2020,10,01,16,25,20.70
2020,10,01,16,26,20.70
2020,10,01,16,27,20.80
2020,10,01,16,28,20.80
2020,10,01,16,29,20.80
2020,10,01,16,30,20.80
2020,10,01,16,31,20.90
2020,10,01,16,32,20.90
2020,10,01,16,33,20.90
2020,10,01,16,34,20.90
2020,10,01,16,35,20.90
2020,10,01,16,36,20.90
2020,10,01,16,37,21.00
2020,10,01,16,38,20.90
2020,10,01,16,39,20.90
2020,10,01,16,40,20.90
2020,10,01,16,41,20.90
2020,10,01,16,42,20.80
2020,10,01,16,43,20.80
2020,10,01,16,44,20.80
2020,10,01,16,45,20.70
2020,10,01,16,46,20.70
2020,10,01,16,47,20.70
2020,10,01,16,48,20.60
2020,10,01,16,49,20.60
2020,10,01,16,50,20.60
2020,10,01,16,51,20.60
2020,10,01,16,52,20.60
2020,10,01,16,53,20.70
2020,10,01,16,54,20.60
2020,10,01,16,55,20.60
2020,10,01,16,56,20.60
2020,10,01,16,57,20.60
2020,10,01,16,58,20.60
2020,10,01,16,59,20.60
2020,10,01,17,00,20.60
2020,10,01,17,01,20.60
2020,10,01,17,02,20.60
2020,10,01,17,03,20.50
2020,10,01,17,04,20.50
2020,10,01,17,05,20.40
2020,10,01,17,06,20.40
2020,10,01,17,07,20.30
2020,10,01,17,08,20.30
2020,10,01,17,09,20.30
2020,10,01,17,10,20.40
2020,10,01,17,11,20.40
2020,10,01,17,12,20.40
2020,10,01,17,13,20.40
2020,10,01,17,14,20.40
2020,10,01,17,15,20.50
2020,10,01,17,16,20.50
2020,10,01,17,17,20.40
2020,10,01,17,18,20.40
2020,10,01,17,19,20.40
2020,10,01,17,20,20.40
2020,10,01,17,21,20.30
2020,10,01,17,22,20.30
2020,10,01,17,23,20.30
2020,10,01,17,24,20.30
2020,10,01,17,25,20.30
2020,10,01,17,26,20.40
2020,10,01,17,27,20.40
2020,10,01,17,28,20.30
2020,10,01,17,29,20.30
2020,10,01,17,30,20.30
2020,10,01,17,31,20.30
2020,10,01,17,32,20.20
2020,10,01,17,33,20.20
2020,10,01,17,34,20.20
2020,10,01,17,35,20.10
2020,10,01,17,36,20.10
2020,10,01,17,37,20.10
2020,10,01,17,38,20.00
2020,10,01,17,39,19.90
2020,10,01,17,40,19.90
2020,10,01,17,41,19.90
2020,10,01,17,42,19.90
2020,10,01,17,43,19.90
2020,10,01,17,44,19.80
2020,10,01,17,45,19.80
2020,10,01,17,46,19.80
2020,10,01,17,47,19.70
2020,10,01,17,48,19.70
2020,10,01,17,49,19.70
2020,10,01,17,50,19.70
2020,10,01,17,51,19.70
2020,10,01,17,52,19.70
2020,10,01,17,53,19.60
2020,10,01,17,54,19.70
2020,10,01,17,55,19.70
2020,10,01,17,56,19.70
2020,10,01,17,57,19.70
2020,10,01,17,58,19.70
2020,10,01,17,59,19.70
2020,10,01,18,00,19.70
2020,10,01,18,01,19.70
2020,10,01,18,02,19.70
2020,10,01,18,03,19.80
2020,10,01,18,04,19.80
2020,10,01,18,05,19.80
2020,10,01,18,06,19.80
2020,10,01,18,07,19.80
2020,10,01,18,08,19.80
2020,10,01,18,09,19.70
2020,10,01,18,10,19.70
2020,10,01,18,11,19.60
2020,10,01,18,12,19.60
2020,10,01,18,13,19.60
2020,10,01,18,14,19.50
2020,10,01,18,15,19.50
2020,10,01,18,16,19.40
2020,10,01,18,17,19.40
2020,10,01,18,18,19.40
2020,10,01,18,19,19.40
2020,10,01,18,20,19.30
2020,10,01,18,21,19.30
2020,10,01,18,22,19.30
2020,10,01,18,23,19.30
2020,10,01,18,24,19.30
2020,10,01,18,25,19.20
2020,10,01,18,26,19.20
2020,10,01,18,27,19.20
2020,10,01,18,28,19.10
2020,10,01,18,29,19.10
2020,10,01,18,30,19.10
2020,10,01,18,31,19.00
2020,10,01,18,32,19.00
2020,10,01,18,33,18.90
2020,10,01,18,34,18.90
2020,10,01,18,35,18.90
2020,10,01,18,36,18.90
2020,10,01,18,37,18.90
2020,10,01,18,38,18.90
2020,10,01,18,39,18.90
2020,10,01,18,40,18.90
2020,10,01,18,41,18.90
2020,10,01,18,42,18.90
2020,10,01,18,43,18.90
2020,10,01,18,44,18.90
2020,10,01,18,45,18.90
2020,10,01,18,46,18.90
